Regional Weather Roundup
Issued by NWS

Home | Current Version | Previous Version | Graphics & Text | Print | Product List | Glossary On
Versions: 1 2 3 4 5 6 7 8 9 10 11 12 13 14 15 16 17 18 19 20 21 22 23 24 25 26 27 28 29 30 31 32 33 34 35 36 37 38 39 40 41 42 43 44 45 46 47 48 49 50
000
ASUS43 KOAX 201010
RWRNE

WEATHER ROUNDUP FOR NEBRASKA
NATIONAL WEATHER SERVICE OMAHA NE
500 AM CDT THU JUL 20 2017

NOTES: SATELLITE DATA IS BEING USED TO AUGMENT CLOUD COVER ABOVE
       12000 FEET.
       "FAIR" INDICATES FEW OR NO CLOUDS BELOW 12,000 FEET WITH NO
       SIGNIFICANT WEATHER AND/OR OBSTRUCTIONS TO VISIBILITY.


NEZ001>004-019>022-054>056-201100-
NEBRASKA PANHANDLE

CITY           SKY/WX    TMP DP  RH WIND       PRES   REMARKS
SCOTTSBLUFF    PTCLDY    69  63  81 CALM      30.12R
ALLIANCE       CLOUDY    66  64  93 SE8       30.12R
CHADRON        LGT RAIN  68  65  90 N7        30.07S
GORDON         DRIZZLE   69  65  87 CALM      30.07F
KIMBALL        CLOUDY    65  63  91 NE6       30.21R
SIDNEY         CLOUDY    68  62  81 N13       30.15S
$$

NEZ057>060-069>072-079>082-201100-
SOUTHWEST NEBRASKA

CITY           SKY/WX    TMP DP  RH WIND       PRES   REMARKS
NORTH PLATTE   CLOUDY    74  63  68 E8        30.02S
IMPERIAL       PTCLDY    71  60  68 NE12      30.01R
LEXINGTON      CLOUDY    73  65  76 NE6       30.01S
MCCOOK         PTCLDY    69  61  75 N8        29.99R
OGALLALA       CLOUDY    77  59  53 NE14      30.04F
$$

NEZ005>010-023>029-035>040-094-201100-
NORTH CENTRAL NEBRASKA

CITY           SKY/WX    TMP DP  RH WIND       PRES   REMARKS
VALENTINE      CLOUDY    75  64  68 SW16      30.04F
AINSWORTH      CLOUDY    75  63  66 W17G24    30.09R
BROKEN BOW     CLOUDY    72  63  73 N3        30.03S
O`NEILL        LGT RAIN  73  68  83 N22       30.01F
ORD            CLOUDY    73  66  78 S3        29.99F
THEDFORD       LGT RAIN  71  65  80 S5        30.08R
$$

NEZ041-046>049-061>064-073>077-083>087-201100-
SOUTH CENTRAL NEBRASKA

CITY           SKY/WX    TMP DP  RH WIND       PRES   REMARKS
GRAND ISLAND   CLOUDY    73  70  90 SE3       30.00S
AURORA         CLOUDY    74  68  79 S5        30.00S
HASTINGS       CLOUDY    78  63  59 S5        30.02R
HEBRON         CLOUDY    77  66  70 S5        29.99S
HOLDREGE       CLOUDY    74  62  65 E5        30.00R
KEARNEY        PTCLDY    77  64  64 N3        30.02R
YORK           CLOUDY    73  68  83 CALM      30.00F
$$

NEZ011>018-030>034-042>045-201100-
NORTHEAST NEBRASKA

CITY           SKY/WX    TMP DP  RH WIND       PRES   REMARKS
NORFOLK        CLOUDY    82  60  47 N10       29.98R
ALBION         CLOUDY    77  67  71 CALM      29.99S
BLAIR          RAIN      82  69  66 SW9       29.95R
COLUMBUS       CLOUDY    80  67  64 S10       29.95S
FREMONT        PTCLDY    82  67  61 S8        29.94S
TEKAMAH        CLOUDY    77  70  79 N3        29.92R
WAYNE          MOCLDY    77  76  96 NW3       29.96R
$$

NEZ050>053-065>068-078-088>093-201100-
SOUTHEAST NEBRASKA

CITY           SKY/WX    TMP DP  RH WIND       PRES   REMARKS
LINCOLN        PTCLDY    81  69  67 W3        29.98S
OMAHA EPPLEY   MOCLDY    81  70  69 SE10      29.94F
BEATRICE       CLOUDY    78  68  72 S5        29.98F
FALLS CITY     CLEAR     78  71  79 SW12      29.97S
NEBRASKA CITY  CLOUDY    78  72  81 SW12      29.96F
PLATTSMOUTH    PTCLDY    74  69  83 S6        29.97F
$$

NEZ044-045-051>053-067-201100-
OMAHA AREA

CITY           SKY/WX    TMP DP  RH WIND       PRES   REMARKS
OMAHA EPPLEY   MOCLDY    81  70  69 SE10      29.94F
BLAIR          RAIN      82  69  66 SW9       29.95R
FREMONT        PTCLDY    82  67  61 S8        29.94S
MILLARD        PTCLDY    83  72  71 S5        29.95S
OFFUTT AFB     PTCLDY    76  70  82 S5        29.95S
PLATTSMOUTH    PTCLDY    74  69  83 S6        29.97F
WAHOO          FAIR      80  67  64 SW6       29.95S
$$



USA.gov is the U.S. government's official web portal to all federal, state and local government web resources and services.